[[{"header":{"parameterUnit":"m.s-1","parameterCategory":1,"la1":30.2991,"la2":30.254,"lo1":-89.0895,"lo2":-89.0444,"dy":0.0017,"dx":0.0017,"nx":28,"ny":28,"refTime":"2024-11-27T09:00:00:Z","depth":0,"parameterNumber":2,"parameterNumberName":"U-component_of_WINDS"},"data":[0,0,0,0,0,0,0,0,0,0,0,0,0,0,0,0,0,0,0,0,0,0,0,0,0,0,0,0,0,0,0,0,0,0,0,0,0,0,0,0,0,0,0,0,0,0,0,0,0,0,0,0,0,0,0,0,0,0,3.7783,3.7784,0,3.7941,3.7943,3.7944,3.7946,3.7944,3.7942,3.794,3.8108,3.8114,3.812,0,0,0,0,0,0,0,0,0,0,0,0,0,3.7488,3.7493,3.7782,3.7784,3.7786,3.7941,3.7943,3.7945,3.7946,3.7944,3.7942,3.7939,3.8106,3.8113,3.8121,0,0,0,0,0,0,0,0,0,0,0,0,0,3.7628,3.7495,3.7782,3.7806,3.7809,3.794,3.7943,3.7946,3.7947,3.7944,3.7941,3.7938,3.8103,3.8112,3.8122,3.8241,0,0,3.8151,3.8155,0,0,0,0,0,0,0,0,3.762,3.7639,3.78,3.7804,3.7809,3.792,3.79,3.8045,3.7948,3.7895,3.794,3.7937,3.8048,3.8062,3.8099,3.8249,3.8256,3.8152,3.8157,3.8161,3.8164,0,0,0,0,0,0,0,3.761,3.7632,3.7845,3.7803,3.7808,3.781,3.7827,3.7928,3.7987,3.7899,3.79,3.7918,3.805,3.8089,3.8103,3.8259,3.8151,3.816,3.8166,3.8169,3.8517,3.8521,0,0,0,0,0,0,3.7595,3.7624,3.784,3.785,3.7705,3.7818,3.7837,3.7888,3.7986,3.7998,3.7921,3.7918,3.8075,3.8091,3.8108,3.8255,3.8161,3.817,3.8176,3.8514,3.8518,3.8522,0,0,0,0,0,0,3.7589,3.7614,3.7834,3.7737,3.7765,3.7826,3.7884,3.7892,3.7932,3.8002,3.8013,3.795,3.8073,3.8095,3.8208,3.8261,3.8175,3.8183,3.851,3.8515,3.852,3.8549,0,0,0,0,0,0,3.758,3.7612,3.7656,3.7738,3.777,3.7929,3.7887,3.7898,3.7948,3.7945,3.8032,3.8043,3.8072,3.8194,3.8218,3.8273,3.8191,3.8505,3.8512,3.8518,3.8544,3.8555,3.8564,0,0,0,0,0,3.757,3.7659,3.7658,3.7685,3.7827,3.7932,3.7951,3.798,3.7952,3.7998,3.8043,3.8041,3.8252,3.8206,3.8232,3.8291,3.8502,3.851,3.8518,3.8539,3.8553,3.8564,0,0,0,0,0,0,3.7583,3.767,3.767,3.7788,3.7853,3.7932,3.7991,3.7994,3.8068,3.8063,3.8099,3.8119,3.8232,3.8273,3.822,3.8413,3.8374,3.8387,3.8381,3.8394,3.8404,3.8392,3.8199,0,0,0,0,0,3.76,3.7676,3.7749,3.7846,3.7878,3.7929,3.7976,3.7993,3.8062,3.809,3.8143,3.8211,3.8293,3.8346,3.8426,3.8551,3.857,3.8605,3.8615,3.8623,3.8634,3.8704,3.8721,3.8548,3.8548,3.8548,0,0,3.7635,3.7692,3.7738,3.785,3.7902,3.7982,3.7952,3.8037,3.8098,3.8103,3.8212,3.8255,3.8334,3.8453,3.8509,3.8491,3.8686,3.8633,3.8639,3.8646,3.8714,3.873,3.8745,3.8554,3.8553,3.8552,0,0,3.7739,3.779,3.7876,3.7929,3.8007,3.8041,3.8062,3.8142,3.8169,3.828,3.8286,3.836,3.85,3.8556,3.8603,3.8731,3.8732,3.8757,3.881,3.8878,3.8891,3.8904,3.895,3.8966,3.8768,3.8768,3.8768,0,3.7773,3.7891,3.7921,3.8007,3.8057,3.8065,3.8154,3.8205,3.8306,3.8341,3.832,3.8497,3.855,3.8684,3.8715,3.8753,3.8779,3.8746,3.8887,3.8899,3.8911,3.8956,3.8973,3.877,3.877,3.877,3.8769,0,3.793,3.8012,3.8074,3.8169,3.8227,3.8314,3.8359,3.8414,3.8427,3.8464,3.8578,3.8643,3.8735,3.8769,3.8784,3.8906,3.8892,3.8879,3.884,3.893,3.8972,3.8989,3.8774,3.8773,3.8772,3.8771,0,0,3.8044,3.8156,3.8178,3.8222,3.8311,3.8376,3.8466,3.8555,3.8602,3.8673,3.8749,3.8868,3.8857,3.891,3.8932,3.8992,3.909,3.8971,3.8974,3.8991,3.9229,3.9238,3.9257,3.9092,3.9095,3.9098,3.9223,0,3.8157,3.8313,3.8343,3.8479,3.8557,3.8567,3.8646,3.8709,3.8747,3.882,3.8863,3.8947,3.8925,3.8957,3.9018,3.9065,3.9138,3.9057,3.9164,3.9168,3.9142,3.9279,3.9288,3.9402,3.9239,3.9242,3.9244,0,3.8309,3.8382,3.8525,3.8605,3.8639,3.8708,3.8793,3.8862,3.8937,3.896,3.902,3.9036,3.9131,3.909,3.9223,3.9166,3.9213,3.9244,3.9249,3.9259,3.921,3.9292,3.9439,3.9456,3.9271,3.9268,3.9267,0,3.8378,3.8512,3.8615,3.8653,3.8749,3.8797,3.884,3.891,3.8963,3.9039,3.9074,3.916,3.9208,3.9276,3.9315,3.9281,3.9446,3.9407,3.9469,3.9468,3.9501,3.9498,3.9657,3.9533,3.9533,3.9533,3.9532,0,3.85,3.8587,3.8647,3.8711,3.881,3.8846,3.8944,3.8986,3.905,3.9123,3.9139,3.9208,3.9256,3.9333,3.9365,3.9471,3.9493,3.9515,3.9523,3.9513,3.951,3.9543,3.9536,3.9537,3.9536,3.9535,3.9534,0,3.8592,3.8636,3.8749,3.883,3.8853,3.8923,3.8993,3.9057,3.9095,3.9188,3.9213,3.9274,3.9365,3.9412,3.9526,3.9548,3.9667,3.967,3.9641,3.9644,3.9703,3.9696,3.9887,3.9914,3.9773,3.9774,3.9776,0,3.8666,3.8733,3.8822,3.8872,3.8915,3.8995,3.9048,3.9088,3.9143,3.9234,3.9287,3.9379,3.9454,3.96,3.9657,3.9745,3.975,3.9811,3.9763,3.9752,3.975,3.9745,3.9752,3.9818,3.982,3.9821,3.9822,0,3.8793,3.8812,3.8887,3.8971,3.9035,3.9103,3.9171,3.9211,3.9262,3.9325,3.9417,3.9476,3.9593,3.9684,3.9777,3.9823,3.9832,3.9837,3.9856,3.9846,3.9826,3.9837,3.9663,3.9832,3.9831,3.983,3.9829,3.9829,3.8878,3.8939,3.9011,3.9095,3.915,3.9213,3.9277,3.9324,3.9401,3.9498,3.9518,3.9617,3.9692,3.9817,3.9867,3.9946,3.9933,3.9961,3.9967,3.9973,3.9976,3.9814,3.9963,3.9963,3.9963,3.9963,3.9963,0,3.9005,3.9052,3.913,3.9223,3.9291,3.9292,3.9368,3.9424,3.951,3.9579,3.9653,3.9761,3.9851,3.9915,4.0007,4.0058,4.0064,4.0081,4.0077,4.0087,3.9982,3.9956,4.0074,4.0074,4.0074,4.0074,4.0074,4.0074,3.9079,3.9181,3.9209,3.9341,3.9388,3.9484,3.9527,3.9586,3.9641,3.976,3.9834,3.9875,3.9943,4.004,4.0124,4.0141,4.0173,4.019,4.0207,4.0107,4.0095,4.0083,4.0059,4.0197,4.0197,4.0305,4.0306,4.0307]},{"header":{"parameterUnit":"m.s-1","parameterCategory":1,"la1":30.2991,"la2":30.254,"lo1":-89.0895,"lo2":-89.0444,"dy":0.0017,"dx":0.0017,"nx":28,"ny":28,"refTime":"2024-11-27T09:00:00:Z","depth":0,"parameterNumber":3,"parameterNumberName":"V-component_of_WINDS"},"data":[0,0,0,0,0,0,0,0,0,0,0,0,0,0,0,0,0,0,0,0,0,0,0,0,0,0,0,0,0,0,0,0,0,0,0,0,0,0,0,0,0,0,0,0,0,0,0,0,0,0,0,0,0,0,0,0,0,0,3.6807,3.6807,0,3.682,3.6821,3.6821,3.6795,3.6794,3.6793,3.6792,3.6804,3.6805,3.6806,0,0,0,0,0,0,0,0,0,0,0,0,0,3.6756,3.6757,3.6807,3.6807,3.6807,3.682,3.6821,3.6821,3.6795,3.6794,3.6793,3.6792,3.6803,3.6805,3.6806,0,0,0,0,0,0,0,0,0,0,0,0,0,3.6774,3.6757,3.6807,3.6796,3.6795,3.682,3.6821,3.6821,3.6795,3.6794,3.6793,3.6791,3.6803,3.6805,3.6806,3.6842,0,0,3.6811,3.6812,0,0,0,0,0,0,0,0,3.6773,3.6776,3.6797,3.6797,3.6796,3.6805,3.6807,3.6828,3.6795,3.6795,3.6792,3.6791,3.6805,3.6806,3.6812,3.6843,3.6843,3.6811,3.6812,3.6813,3.6814,0,0,0,0,0,0,0,3.6772,3.6776,3.6812,3.6798,3.6797,3.679,3.6791,3.6811,3.6807,3.6795,3.6793,3.6795,3.6804,3.681,3.6812,3.6843,3.6811,3.6813,3.6814,3.6815,3.6905,3.6906,0,0,0,0,0,0,3.6773,3.6775,3.6812,3.6812,3.6781,3.6791,3.6793,3.6803,3.6807,3.6806,3.6796,3.6794,3.6808,3.681,3.6812,3.6855,3.6813,3.6815,3.6816,3.6904,3.6905,3.6907,0,0,0,0,0,0,3.6772,3.6776,3.6811,3.6793,3.6797,3.6794,3.6805,3.6804,3.681,3.6808,3.6807,3.6803,3.6807,3.681,3.6835,3.6855,3.6815,3.6817,3.6902,3.6904,3.6906,3.694,0,0,0,0,0,0,3.677,3.6776,3.679,3.6794,3.6798,3.6835,3.6807,3.6805,3.6813,3.681,3.6814,3.6813,3.6806,3.6833,3.6837,3.6856,3.6818,3.69,3.6903,3.6905,3.6937,3.6943,3.6948,0,0,0,0,0,3.6769,3.6798,3.6791,3.6795,3.6816,3.6836,3.6838,3.683,3.6815,3.6829,3.6827,3.6813,3.6852,3.6836,3.684,3.686,3.6899,3.6902,3.6905,3.6935,3.6942,3.6948,0,0,0,0,0,0,3.6795,3.6798,3.679,3.6822,3.6829,3.6831,3.6848,3.6838,3.6849,3.6845,3.6834,3.6835,3.6863,3.6864,3.6846,3.6895,3.6873,3.6877,3.6894,3.6901,3.6906,3.6905,3.682,0,0,0,0,0,3.6805,3.6822,3.6824,3.6852,3.6856,3.6852,3.686,3.6854,3.686,3.6862,3.6863,3.6869,3.6882,3.6891,3.6904,3.6937,3.6938,3.6953,3.6959,3.6963,3.6967,3.6985,3.6992,3.6917,3.6917,3.6917,0,0,3.6825,3.6829,3.684,3.6857,3.6862,3.6879,3.6854,3.6873,3.6886,3.6865,3.6889,3.689,3.6896,3.6926,3.6939,3.6927,3.6988,3.6967,3.6971,3.6972,3.6989,3.6996,3.7002,3.6919,3.6919,3.6919,0,0,3.6871,3.6876,3.69,3.6905,3.6913,3.691,3.6916,3.6921,3.6921,3.6945,3.693,3.6945,3.6968,3.6973,3.6979,3.7028,3.7015,3.7032,3.706,3.7078,3.7084,3.7089,3.7107,3.7113,3.7036,3.7036,3.7036,0,3.6895,3.6921,3.6913,3.6934,3.6942,3.6925,3.6949,3.6955,3.6966,3.6971,3.6958,3.6988,3.6991,3.7022,3.7034,3.7039,3.7045,3.7031,3.7084,3.7089,3.7094,3.711,3.7117,3.7038,3.7038,3.7037,3.7037,0,3.695,3.6968,3.6986,3.6999,3.7009,3.7031,3.7027,3.7037,3.703,3.7029,3.7054,3.7057,3.707,3.7077,3.707,3.7107,3.71,3.7086,3.7063,3.7103,3.7119,3.7125,3.7041,3.704,3.7039,3.7039,0,0,3.7011,3.7021,3.7028,3.7033,3.7041,3.7055,3.7077,3.7091,3.71,3.7108,3.7126,3.7147,3.7134,3.7141,3.7134,3.715,3.7189,3.7134,3.7134,3.7144,3.723,3.7241,3.7248,3.7181,3.7182,3.7183,3.723,0,3.7057,3.7095,3.7089,3.7126,3.7143,3.7128,3.7147,3.7153,3.7153,3.7167,3.7165,3.7181,3.7163,3.7167,3.7182,3.7181,3.7206,3.7177,3.7196,3.7197,3.7195,3.7256,3.7267,3.7312,3.7236,3.7237,3.7238,0,3.7114,3.7127,3.7165,3.7172,3.7179,3.7196,3.7208,3.7222,3.7229,3.7228,3.7236,3.7226,3.7247,3.7225,3.7253,3.7234,3.7241,3.7242,3.7244,3.7245,3.722,3.7259,3.7325,3.7332,3.7247,3.7246,3.7245,0,3.7156,3.7182,3.7208,3.7214,3.7222,3.7234,3.7238,3.7244,3.7253,3.7264,3.727,3.7282,3.7289,3.7299,3.7293,3.7277,3.7323,3.73,3.7322,3.7322,3.7332,3.7331,3.74,3.7337,3.7337,3.7337,3.7337,0,3.7207,3.7231,3.7227,3.7244,3.7271,3.7264,3.729,3.7292,3.7298,3.7314,3.7301,3.7316,3.7308,3.7322,3.7318,3.7342,3.7346,3.7345,3.7343,3.7346,3.7346,3.735,3.7347,3.7339,3.7338,3.7338,3.7338,0,3.7257,3.7256,3.7284,3.729,3.7292,3.7311,3.7316,3.7331,3.733,3.7351,3.7355,3.7353,3.737,3.7365,3.7382,3.7379,3.7411,3.7405,3.7409,3.7407,3.743,3.7428,3.7504,3.7513,3.7444,3.7445,3.7446,0,3.729,3.7308,3.7317,3.7327,3.7333,3.7349,3.7359,3.7353,3.7364,3.7374,3.7388,3.7403,3.7416,3.7442,3.7442,3.7455,3.745,3.7476,3.7452,3.7454,3.745,3.7449,3.7451,3.748,3.7481,3.7482,3.7482,0,3.7348,3.7346,3.7361,3.7377,3.7389,3.74,3.741,3.7419,3.7414,3.7426,3.7443,3.7453,3.7472,3.7487,3.75,3.7502,3.7492,3.749,3.7496,3.7499,3.75,3.75,3.7421,3.7488,3.7488,3.7487,3.7487,3.7487,3.739,3.7406,3.7415,3.7432,3.744,3.745,3.7464,3.7466,3.7481,3.7496,3.7492,3.7512,3.7519,3.7535,3.7539,3.7554,3.7544,3.7553,3.7555,3.7557,3.756,3.7498,3.7556,3.7556,3.7556,3.7556,3.7556,0,3.7447,3.7453,3.7469,3.7484,3.7498,3.7488,3.7499,3.751,3.7528,3.7537,3.7549,3.7569,3.7585,3.7586,3.7601,3.7612,3.7608,3.7616,3.7615,3.7616,3.7568,3.7562,3.762,3.762,3.762,3.762,3.762,3.762,3.7479,3.7506,3.7506,3.7536,3.7541,3.7562,3.7569,3.7578,3.7584,3.7608,3.7621,3.7623,3.7628,3.7643,3.7656,3.7656,3.7662,3.7673,3.7671,3.7626,3.7619,3.7613,3.7607,3.7674,3.7674,3.7717,3.7718,3.7718]}]]